{"data":{"norad_id":58119,"epoch":"2026-09-20T23:07:58.736064Z","epoch_age_seconds":100337,"freshness":"FRESH","line1":"1 58119U 23162B   26263.96387426 -.00000367  00000+0 -38063-5 0  9994","line2":"2 58119  43.0077 109.5193 0002353 263.8015  96.2569 15.27573928162176","mean_motion":15.27573928,"eccentricity":0.0002353,"inclination_deg":43.0077,"raan_deg":109.5193,"arg_perigee_deg":263.8015,"mean_anomaly_deg":96.2569,"bstar":-3.8063e-6,"rev_number":16217,"period_min":94.267123417414,"perigee_km":481.45283648569,"apogee_km":484.68171921885,"semimajor_km":6861.2042778523,"source":"CELESTRAK","updated_at":"2026-09-21T09:00:33.790702Z"}}